[[{"header":{"parameterUnit":"m.s-1","parameterCategory":1,"la1":30.2991,"la2":30.254,"lo1":-89.0895,"lo2":-89.0444,"dy":0.0017,"dx":0.0017,"nx":28,"ny":28,"refTime":"2025-09-04T09:00:00:Z","depth":0,"parameterNumber":2,"parameterNumberName":"U-component_of_WINDS"},"data":[0,0,0,0,0,0,0,0,0,0,0,0,0,0,0,0,0,0,0,0,0,0,0,0,0,0,0,0,0,0,0,0,0,0,0,0,0,0,0,0,0,0,0,0,0,0,0,0,0,0,0,0,0,0,0,0,0,0,-1.0992,-1.0992,0,-1.1019,-1.1019,-1.1019,-1.1001,-1.1,-1.0999,-1.0998,-1.1027,-1.1028,-1.103,0,0,0,0,0,0,0,0,0,0,0,0,0,-1.0925,-1.0926,-1.0992,-1.0992,-1.0992,-1.1019,-1.1019,-1.102,-1.1001,-1.1,-1.0999,-1.0998,-1.1026,-1.1028,-1.103,0,0,0,0,0,0,0,0,0,0,0,0,0,-1.0953,-1.0927,-1.0992,-1.0986,-1.0986,-1.1019,-1.1019,-1.102,-1.1001,-1.1,-1.0999,-1.0997,-1.1026,-1.1028,-1.103,-1.107,0,0,-1.1037,-1.1039,0,0,0,0,0,0,0,0,-1.0952,-1.0956,-1.0987,-1.0987,-1.0987,-1.1005,-1.1006,-1.1037,-1.1001,-1.0995,-1.0998,-1.0997,-1.1021,-1.1023,-1.1031,-1.1072,-1.1073,-1.1038,-1.1039,-1.104,-1.1041,0,0,0,0,0,0,0,-1.095,-1.0955,-1.1003,-1.0987,-1.0987,-1.0983,-1.0986,-1.1012,-1.1015,-1.0996,-1.0995,-1.0998,-1.102,-1.1029,-1.1032,-1.1073,-1.1038,-1.104,-1.1041,-1.1042,-1.1148,-1.1149,0,0,0,0,0,0,-1.0948,-1.0953,-1.1002,-1.1003,-1.0966,-1.0985,-1.0988,-1.1,-1.1015,-1.1015,-1.0999,-1.0997,-1.1026,-1.1029,-1.1033,-1.1081,-1.104,-1.1042,-1.1044,-1.1147,-1.1148,-1.115,0,0,0,0,0,0,-1.0947,-1.0953,-1.1001,-1.0978,-1.0984,-1.0988,-1.1002,-1.1002,-1.101,-1.1017,-1.1017,-1.1007,-1.1025,-1.103,-1.1061,-1.1081,-1.1043,-1.1045,-1.1145,-1.1147,-1.1149,-1.1176,0,0,0,0,0,0,-1.0945,-1.0952,-1.0967,-1.0978,-1.0985,-1.1028,-1.1003,-1.1003,-1.1014,-1.1012,-1.1025,-1.1026,-1.1024,-1.1058,-1.1063,-1.1084,-1.1047,-1.1143,-1.1146,-1.1148,-1.1174,-1.1179,-1.1184,0,0,0,0,0,-1.0943,-1.0974,-1.0968,-1.0974,-1.1004,-1.1029,-1.1033,-1.103,-1.1016,-1.1031,-1.1035,-1.1025,-1.1078,-1.1061,-1.1067,-1.1089,-1.1142,-1.1145,-1.1148,-1.1171,-1.1178,-1.1184,0,0,0,0,0,0,-1.0966,-1.0975,-1.0969,-1.1005,-1.1016,-1.1026,-1.1045,-1.1038,-1.1054,-1.1051,-1.1047,-1.105,-1.1084,-1.1089,-1.107,-1.1128,-1.1108,-1.1112,-1.1123,-1.113,-1.1135,-1.1133,-1.1049,0,0,0,0,0,-1.0975,-1.0994,-1.1002,-1.1033,-1.1039,-1.1041,-1.1052,-1.1049,-1.1061,-1.1066,-1.1073,-1.1085,-1.1105,-1.1117,-1.1136,-1.1174,-1.1177,-1.1192,-1.1197,-1.1201,-1.1205,-1.1227,-1.1234,-1.116,-1.116,-1.116,0,0,-1.0994,-1.1002,-1.1014,-1.1038,-1.1046,-1.1067,-1.1045,-1.1068,-1.1084,-1.107,-1.11,-1.1105,-1.1119,-1.1154,-1.117,-1.116,-1.1226,-1.1206,-1.1209,-1.1211,-1.1231,-1.1238,-1.1244,-1.1162,-1.1162,-1.1162,0,0,-1.1039,-1.1047,-1.1074,-1.1083,-1.1096,-1.1097,-1.1104,-1.1115,-1.1118,-1.1148,-1.1138,-1.1157,-1.119,-1.12,-1.121,-1.126,-1.1251,-1.1266,-1.1292,-1.1313,-1.1319,-1.1324,-1.1342,-1.1348,-1.127,-1.127,-1.127,0,-1.1062,-1.1092,-1.1089,-1.1112,-1.1123,-1.1111,-1.1138,-1.1147,-1.1166,-1.1174,-1.1162,-1.1204,-1.1212,-1.125,-1.1262,-1.127,-1.1278,-1.1264,-1.1318,-1.1323,-1.1328,-1.1345,-1.1352,-1.1271,-1.1271,-1.1271,-1.1271,0,-1.1119,-1.1141,-1.1161,-1.1179,-1.1192,-1.1217,-1.1218,-1.1231,-1.1227,-1.123,-1.1261,-1.127,-1.129,-1.1299,-1.1296,-1.1337,-1.133,-1.1318,-1.1298,-1.1337,-1.1353,-1.1359,-1.1274,-1.1273,-1.1273,-1.1272,0,0,-1.118,-1.1196,-1.1203,-1.1211,-1.1225,-1.1242,-1.1267,-1.1286,-1.1298,-1.1311,-1.1332,-1.1361,-1.135,-1.1361,-1.1359,-1.1377,-1.1416,-1.1363,-1.1363,-1.1373,-1.1462,-1.1471,-1.1479,-1.1411,-1.1412,-1.1413,-1.1461,0,-1.1227,-1.127,-1.1267,-1.1308,-1.1328,-1.1317,-1.1338,-1.135,-1.1353,-1.1371,-1.1374,-1.1395,-1.1379,-1.1385,-1.1403,-1.1408,-1.1434,-1.1404,-1.1431,-1.1432,-1.1427,-1.1487,-1.1496,-1.1542,-1.1467,-1.1468,-1.1469,0,-1.1287,-1.1302,-1.1344,-1.1355,-1.1363,-1.1383,-1.1401,-1.1418,-1.143,-1.1431,-1.1444,-1.1438,-1.1464,-1.1443,-1.1478,-1.1458,-1.1469,-1.1473,-1.1474,-1.1477,-1.1453,-1.1491,-1.1556,-1.1563,-1.1479,-1.1478,-1.1478,0,-1.1327,-1.1358,-1.1387,-1.1395,-1.1408,-1.1422,-1.1429,-1.144,-1.1452,-1.1467,-1.1475,-1.1493,-1.1504,-1.1518,-1.1518,-1.1502,-1.1554,-1.1533,-1.1556,-1.1556,-1.1568,-1.1567,-1.1635,-1.1574,-1.1574,-1.1574,-1.1574,0,-1.1379,-1.1406,-1.1406,-1.1424,-1.1453,-1.145,-1.148,-1.1485,-1.1495,-1.1514,-1.1506,-1.1524,-1.1523,-1.1542,-1.1542,-1.1571,-1.1576,-1.1578,-1.1578,-1.1579,-1.1579,-1.1586,-1.1583,-1.1576,-1.1576,-1.1575,-1.1575,0,-1.1429,-1.143,-1.1462,-1.1472,-1.1475,-1.1496,-1.1505,-1.1523,-1.1525,-1.155,-1.1555,-1.1559,-1.1581,-1.1582,-1.1607,-1.1607,-1.1643,-1.164,-1.1639,-1.1638,-1.1662,-1.166,-1.1737,-1.1747,-1.168,-1.168,-1.1681,0,-1.1463,-1.1483,-1.1495,-1.1507,-1.1514,-1.1534,-1.1546,-1.1543,-1.1556,-1.1572,-1.1588,-1.1609,-1.1625,-1.166,-1.1666,-1.1685,-1.1682,-1.1707,-1.1685,-1.1685,-1.1682,-1.1681,-1.1683,-1.1712,-1.1713,-1.1713,-1.1714,0,-1.1522,-1.1522,-1.1539,-1.1556,-1.1571,-1.1585,-1.1597,-1.1608,-1.1607,-1.1622,-1.1644,-1.1657,-1.1682,-1.1703,-1.1722,-1.1729,-1.1722,-1.1721,-1.1727,-1.1729,-1.1728,-1.1729,-1.1651,-1.1719,-1.1719,-1.1718,-1.1718,-1.1718,-1.1565,-1.1583,-1.1594,-1.1613,-1.1623,-1.1635,-1.1652,-1.1656,-1.1674,-1.1694,-1.1692,-1.1716,-1.1729,-1.1753,-1.1761,-1.1781,-1.1772,-1.1781,-1.1784,-1.1786,-1.1789,-1.1725,-1.1784,-1.1784,-1.1784,-1.1784,-1.1784,0,-1.1625,-1.1631,-1.1649,-1.1667,-1.1682,-1.1674,-1.1687,-1.1701,-1.1722,-1.1734,-1.175,-1.1776,-1.1796,-1.1803,-1.1823,-1.1837,-1.1834,-1.1842,-1.1841,-1.1843,-1.1795,-1.1788,-1.1844,-1.1844,-1.1844,-1.1844,-1.1844,-1.1844,-1.1657,-1.1686,-1.1687,-1.1721,-1.1727,-1.175,-1.1759,-1.177,-1.178,-1.1808,-1.1825,-1.1829,-1.1839,-1.1859,-1.1877,-1.1879,-1.1887,-1.1896,-1.1897,-1.1852,-1.1846,-1.184,-1.1833,-1.1898,-1.1898,-1.1943,-1.1943,-1.1943]},{"header":{"parameterUnit":"m.s-1","parameterCategory":1,"la1":30.2991,"la2":30.254,"lo1":-89.0895,"lo2":-89.0444,"dy":0.0017,"dx":0.0017,"nx":28,"ny":28,"refTime":"2025-09-04T09:00:00:Z","depth":0,"parameterNumber":3,"parameterNumberName":"V-component_of_WINDS"},"data":[0,0,0,0,0,0,0,0,0,0,0,0,0,0,0,0,0,0,0,0,0,0,0,0,0,0,0,0,0,0,0,0,0,0,0,0,0,0,0,0,0,0,0,0,0,0,0,0,0,0,0,0,0,0,0,0,0,0,2.9496,2.9495,0,2.9483,2.9483,2.9482,2.9428,2.9427,2.9426,2.9425,2.9412,2.9413,2.9413,0,0,0,0,0,0,0,0,0,0,0,0,0,2.9473,2.9473,2.9496,2.9495,2.9495,2.9483,2.9483,2.9482,2.9429,2.9427,2.9426,2.9424,2.9412,2.9413,2.9414,0,0,0,0,0,0,0,0,0,0,0,0,0,2.9474,2.9474,2.9496,2.9467,2.9464,2.9483,2.9483,2.9482,2.9429,2.9427,2.9425,2.9423,2.9411,2.9412,2.9414,2.9459,0,0,2.9417,2.9418,0,0,0,0,0,0,0,0,2.9474,2.9475,2.9471,2.9469,2.9466,2.9455,2.947,2.9475,2.9429,2.9442,2.9425,2.9423,2.9428,2.9428,2.9429,2.9458,2.9458,2.9418,2.9418,2.9419,2.9419,0,0,0,0,0,0,0,2.9474,2.9475,2.949,2.9471,2.9468,2.9454,2.9453,2.947,2.9446,2.9441,2.9437,2.9436,2.9426,2.9428,2.9429,2.9458,2.9418,2.9419,2.9419,2.942,2.9521,2.9523,0,0,0,0,0,0,2.9478,2.9475,2.9491,2.949,2.9465,2.9456,2.9454,2.9461,2.9445,2.9441,2.9438,2.9434,2.9427,2.9427,2.9428,2.9478,2.9419,2.942,2.9421,2.9519,2.9522,2.9524,0,0,0,0,0,0,2.9477,2.948,2.9491,2.9481,2.9482,2.9459,2.9466,2.9461,2.9463,2.9443,2.9438,2.9445,2.9426,2.9426,2.9451,2.9477,2.9421,2.9422,2.9517,2.952,2.9523,2.958,0,0,0,0,0,0,2.9477,2.948,2.9497,2.9482,2.9483,2.9515,2.9468,2.9462,2.9466,2.946,2.9448,2.9444,2.9424,2.945,2.9452,2.9477,2.9423,2.9514,2.9518,2.9522,2.9575,2.9584,2.9592,0,0,0,0,0,2.9476,2.9514,2.9498,2.95,2.9504,2.9517,2.9517,2.9493,2.9468,2.9485,2.9471,2.9445,2.9474,2.9453,2.9455,2.9481,2.9513,2.9517,2.9521,2.9572,2.9583,2.9592,0,0,0,0,0,0,2.9533,2.9512,2.9494,2.9528,2.9524,2.9508,2.9528,2.9505,2.9509,2.9503,2.9474,2.9471,2.95,2.9494,2.947,2.9523,2.9489,2.9494,2.9526,2.9536,2.9544,2.9544,2.9424,0,0,0,0,0,2.9549,2.9561,2.9543,2.9574,2.9574,2.9551,2.9556,2.9538,2.9533,2.9531,2.952,2.9516,2.9524,2.953,2.9537,2.9575,2.9571,2.9594,2.9602,2.9609,2.9613,2.9631,2.964,2.9538,2.9538,2.9538,0,0,2.9583,2.9573,2.9583,2.9585,2.9581,2.9593,2.955,2.9566,2.9575,2.9534,2.9556,2.9548,2.9542,2.9573,2.9586,2.9568,2.9641,2.9615,2.962,2.9621,2.9636,2.9646,2.9655,2.9541,2.954,2.954,0,0,2.965,2.9645,2.967,2.9666,2.9659,2.9644,2.965,2.9637,2.9629,2.9651,2.962,2.963,2.9646,2.9642,2.9642,2.9708,2.9683,2.9711,2.9753,2.9771,2.9779,2.9786,2.9807,2.9815,2.9716,2.9716,2.9716,0,2.9693,2.9711,2.9686,2.9703,2.9705,2.9668,2.9692,2.969,2.9685,2.9687,2.9668,2.9685,2.9678,2.9707,2.9723,2.9725,2.973,2.9711,2.978,2.9786,2.9792,2.9812,2.9821,2.9719,2.9719,2.9719,2.9718,0,2.9763,2.9777,2.9797,2.9793,2.9798,2.9819,2.9796,2.9803,2.9785,2.9771,2.9793,2.9785,2.9788,2.9794,2.9776,2.982,2.9808,2.9785,2.9749,2.9806,2.9824,2.9831,2.9724,2.9723,2.9722,2.9721,0,0,2.9865,2.9846,2.9854,2.9851,2.9841,2.985,2.9869,2.9872,2.9878,2.9877,2.9891,2.9904,2.9882,2.9882,2.9864,2.988,2.993,2.9854,2.9853,2.9866,2.9975,2.9991,3.0,2.9914,2.9916,2.9917,2.9974,0,2.9927,2.9958,2.9935,2.997,2.9981,2.9946,2.9962,2.9957,2.9946,2.9953,2.994,2.9949,2.9921,2.992,2.9934,2.9921,2.9951,2.9917,2.9926,2.9926,2.9926,3.001,3.0027,3.0082,2.9982,2.9983,2.9984,0,3.0004,3.0005,3.004,3.0026,3.003,3.0045,3.0045,3.0053,3.0047,3.0037,3.0037,3.0015,3.0032,2.9999,3.0021,2.9998,3.0001,2.9995,2.9996,2.9994,2.9957,3.0008,3.0099,3.0106,2.9995,2.9994,2.9993,0,3.0071,3.0082,3.0104,3.0103,3.0088,3.0099,3.0093,3.0085,3.0087,3.0088,3.0089,3.0092,3.0093,3.0095,3.0074,3.0052,3.0098,3.0063,3.0089,3.0089,3.0098,3.0097,3.0188,3.0104,3.0104,3.0104,3.0104,0,3.0142,3.0164,3.0133,3.0147,3.017,3.0144,3.0169,3.0159,3.0152,3.0163,3.0134,3.0144,3.0116,3.0124,3.0108,3.0127,3.0129,3.012,3.0115,3.0121,3.0122,3.0121,3.0115,3.0106,3.0106,3.0105,3.0105,0,3.022,3.0201,3.0222,3.0205,3.0202,3.022,3.0206,3.0217,3.0204,3.0217,3.0219,3.0198,3.0205,3.0184,3.0189,3.0178,3.0205,3.0195,3.0207,3.0203,3.0229,3.0226,3.032,3.033,3.0242,3.0243,3.0244,0,3.0265,3.0281,3.0267,3.0271,3.0267,3.0275,3.0277,3.0253,3.0256,3.025,3.0262,3.0266,3.0268,3.0281,3.0266,3.0269,3.0257,3.029,3.0257,3.0262,3.0254,3.0253,3.0253,3.0296,3.0297,3.0298,3.0299,0,3.0346,3.0336,3.034,3.0341,3.0344,3.0344,3.0341,3.0347,3.032,3.0326,3.0332,3.0334,3.0338,3.0342,3.0342,3.0335,3.0312,3.031,3.0315,3.032,3.0325,3.032,3.0223,3.0307,3.0306,3.0306,3.0305,3.0305,3.0407,3.0419,3.041,3.0416,3.0411,3.041,3.0419,3.0406,3.0411,3.0412,3.0398,3.0407,3.0399,3.0396,3.0392,3.0398,3.0383,3.0392,3.0393,3.0395,3.0398,3.0327,3.0398,3.0398,3.0398,3.0398,3.0398,0,3.0485,3.0477,3.0483,3.048,3.0484,3.0463,3.0459,3.0463,3.0471,3.0466,3.0469,3.0476,3.048,3.0465,3.0467,3.0475,3.0464,3.0476,3.0474,3.0472,3.0413,3.0407,3.0484,3.0484,3.0484,3.0484,3.0484,3.0484,3.0525,3.0544,3.0532,3.0548,3.054,3.0549,3.0548,3.0546,3.0541,3.055,3.0553,3.0544,3.0534,3.0535,3.0537,3.0533,3.0534,3.0549,3.054,3.0485,3.0477,3.0468,3.0462,3.055,3.055,3.0598,3.0599,3.0599]}]]